This is the latest recevied weather packets stored in our database for station/object KA8DUX-2. If no packets are shown the sender has not sent any weather packets the latest 10 day(s).
| Time | Temp. | Humidity | Pressure | Rain* | Wind** | Luminosity | Snow |
|---|---|---|---|---|---|---|---|
| 1777658725 | 7.78° C | 60% | 1013.9 hPa | 0 mm | - | 144 W/m² | - |
| 1777658421 | 7.22° C | 59% | 1014.1 hPa | 0 mm | - | 184 W/m² | - |
| 1777658118 | 7.78° C | 58% | 1014.1 hPa | 0 mm | - | 253 W/m² | - |
| 1777657815 | 7.78° C | 57% | 1014.1 hPa | 0 mm | - | 233 W/m² | - |
| 1777657512 | 7.78° C | 59% | 1014.3 hPa | 0 mm | - | 210 W/m² | - |
| 1777657210 | 7.22° C | 60% | 1014 hPa | 0 mm | - | 261 W/m² | - |
| 1777656907 | 7.22° C | 61% | 1014.3 hPa | 0 mm | - | 236 W/m² | - |
| 1777656603 | 6.67° C | 59% | 1014.1 hPa | 0 mm | - | 171 W/m² | - |
| 1777656299 | 7.22° C | 59% | 1014 hPa | 0 mm | - | 180 W/m² | - |
| 1777655994 | 7.22° C | 58% | 1014.2 hPa | 0 mm | - | 238 W/m² | - |
| 1777655690 | 8.33° C | 56% | 1014.2 hPa | 0 mm | - | 252 W/m² | - |
| 1777655387 | 7.78° C | 59% | 1014.1 hPa | 0 mm | - | 325 W/m² | - |
| 1777655084 | 7.78° C | 57% | 1014 hPa | 0 mm | - | 335 W/m² | - |
| 1777654782 | 7.78° C | 57% | 1014.1 hPa | 0 mm | - | 340 W/m² | - |
| 1777654479 | 7.78° C | 57% | 1014.3 hPa | 0 mm | - | 426 W/m² | - |
| 1777654177 | 7.78° C | 58% | 1014.3 hPa | 0 mm | - | 355 W/m² | - |
| 1777653875 | 7.78° C | 58% | 1014 hPa | 0 mm | - | 304 W/m² | - |
| 1777653571 | 7.22° C | 59% | 1014 hPa | 0 mm | - | 379 W/m² | - |
| 1777653267 | 6.67° C | 60% | 1014.2 hPa | 0 mm | - | 337 W/m² | - |
| 1777652964 | 7.22° C | 59% | 1014.3 hPa | 0 mm | - | 421 W/m² | - |
| 1777652660 | 7.22° C | 60% | 1014.3 hPa | 0 mm | - | 360 W/m² | - |
| 1777652358 | 7.78° C | 57% | 1014.2 hPa | 0 mm | - | 278 W/m² | - |
| 1777652055 | 7.78° C | 60% | 1014.3 hPa | 0 mm | - | 339 W/m² | - |
| 1777651751 | 7.78° C | 59% | 1014.5 hPa | 0 mm | - | 337 W/m² | - |
| 1777651448 | 7.78° C | 57% | 1014.3 hPa | 0 mm | - | 322 W/m² | - |
* Rain latest hour (hover to see other rain measurements)
** Current wind speed in m/s (hover to see current wind gust speed)